Location: Fisheating Creek Campgrounds
(26.9333°N, 81.3167°W)
Time: 09:51:56
(UTC-04:00)

Daily predictions for brighter satellites

Satellite Brightness Start Highest point End
(mag) Time Altitude Azimuth Time Altitude Azimuth Time Altitude Azimuth
H-2A R/B 4.0 20:01:50 10° W 20:07:13 89° N 20:55:18 13° ESE
H-2A R/B 4.0 20:01:50 10° W 20:07:13 89° N 20:55:17 13° ESE
H-2A R/B 4.0 20:01:50 10° W 20:07:13 89° N 20:55:14 13° ESE
H-2A R/B 4.0 20:01:50 10° W 20:07:13 89° NNE 20:55:15 13° ESE
H-2A R/B 4.0 20:01:50 10° W 20:07:13 89° NNE 20:55:16 13° ESE
Cosmos 2034 Rocket 4.2 20:06:40 10° S 20:12:50 81° W 20:19:01 10° N
Cosmos 1400 Rocket 3.3 20:10:57 10° N 20:14:39 39° E 20:18:23 10° SSE
Cosmos 1470 Rocket 4.4 20:10:55 10° NNW 20:15:08 54° W 20:19:20 10° S
Meteor 2-3 Rocket 3.9 20:13:08 10° N 20:18:47 59° E 20:24:28 10° SSE
Cosmos 2227 Rocket 3.7 20:14:12 10° NW 20:19:24 39° WSW 20:24:35 10° S
FREGAT/IRIS 2.5 20:16:34 10° SSE 20:19:34 72° ENE 20:22:35 10° N
SL-16 R/B 2.5 20:16:39 10° S 20:22:02 46° ESE 20:27:25 10° NNE
Cosmos 1869 Rocket 4.3 20:19:09 10° NNE 20:23:13 34° E 20:27:15 10° SSE
Cosmos 1315 Rocket 3.6 20:27:09 10° NNE 20:30:45 31° E 20:34:18 10° SE
Spot 2 Rocket 4.1 20:28:56 10° SE 20:33:36 38° ENE 20:38:15 10° N
FengYun 1-2 T 4.3 20:31:36 10° SSE 20:37:12 70° ENE 20:42:51 10° N
Cosmos 2242 Rocket 4.2 20:34:40 10° SSE 20:38:46 35° E 20:42:51 10° NNE
Hubble Space Telescope 3.3 20:39:16 10° SW 20:40:39 11° SSW 20:42:02 10° S
Cosmos 1408 4.3 20:39:10 10° NE 20:41:27 16° E 20:42:19 15° E
ALOS 2.5 20:39:12 10° S 20:43:50 73° WSW 20:48:30 10° NNW
DELTA 2 R/B (1) 3.8 20:41:29 10° NW 20:47:04 64° NNE 20:51:21 17° ESE
Milstar 3 3.1 20:40:49 10° W 20:50:14 83° N 20:55:56 15° E
SL-8 R/B 4.0 20:47:35 10° NW 20:52:22 66° SW 20:56:14 15° SSE
Envisat 4.2 20:51:22 17° ESE 20:53:44 24° ENE 20:57:46 10° NNE
BREEZE-M DEB (TANK) 3.5 20:52:17 10° WNW 20:55:10 58° SW 21:01:40 12° SE
Meteor 1-29 3.6 20:56:06 10° NNE 20:59:16 34° E 21:00:41 23° SE
Resurs 01 Rocket 1.6 20:54:50 10° SSE 20:59:16 83° ENE 21:03:44 10° N
ATLAS CENTAUR R/B 2.6 20:57:10 10° NW 21:00:31 78° SW 21:09:32 11° SSE
Intercosmos 25 Rocket 3.0 20:57:35 10° S 21:00:39 50° E 21:03:56 10° NNE
Cosmos 2227 4.2 20:55:01 10° NNW 21:00:42 66° ENE 21:05:12 16° SSE
Cosmos 1455 4.4 20:59:36 10° SW 21:02:56 29° W 21:06:14 10° NNW
Cosmos 1939 Rocket 4.2 21:05:54 22° ENE 21:06:07 22° ENE 21:09:13 10° NNE
SEDSat Delta rocket 4.0 21:04:48 10° W 21:09:47 56° N 21:14:20 16° ENE
CZ-3B DEB 1.8 21:07:29 10° WNW 21:10:10 25° WSW 21:10:56 21° SSW
H-II Stage 2 2.8 21:11:13 10° W 21:13:49 39° S 21:16:20 25° SE
Meteor 2-10 Rocket 4.2 21:14:30 23° SE 21:17:28 39° E 21:22:49 10° NNE
Lacrosse 4 Rocket 2.1 21:15:08 10° N 21:19:14 38° ENE 21:19:56 36° E
Atlas Centaur 2 2.8 21:12:47 10° W 21:19:22 79° NNW 21:25:41 18° ENE
Helios 1B rocket 2.4 21:15:16 10° N 21:19:22 83° WNW 21:23:28 10° SSW
ERS-1 Rocket 4.4 21:22:05 21° ENE 21:22:05 21° ENE 21:25:33 10° NNE
Gblst 52 Del rocket 4.4 21:16:20 10° NW 21:21:57 61° SW 21:24:57 26° SSE
OTV 4 2.2 21:21:05 10° W 21:23:22 22° SW 21:23:23 22° SW
Sakura Rocket 2.6 21:20:03 10° WSW 21:23:46 82° SSE 21:25:00 45° E
ERBS 2.6 21:22:58 10° NNW 21:26:19 54° NE 21:26:19 54° NE
GPS 2-17 Rocket1 4.2 21:26:11 10° WSW 21:29:48 25° S 21:29:56 25° S
SJ-11-01 4.3 21:33:16 50° ESE 21:33:57 56° ENE 21:38:31 10° N
Cosmos 2026 Rocket 3.9 21:28:32 10° N 21:34:44 89° E 21:38:53 22° S
Cosmos 2263 Rocket 2.7 21:30:57 10° N 21:36:08 39° ENE 21:36:40 38° E
Cosmos 2322 Rocket 4.0 21:31:54 10° SW 21:36:50 31° WNW 21:41:47 10° N
CZ-4B DEB 4.2 21:38:35 30° N 21:38:35 30° N 21:40:16 10° N
USA 229 DEB 3.5 21:32:27 10° SSW 21:39:13 79° ESE 21:46:06 10° NNE
USA 229 3.5 21:32:33 10° SSW 21:39:19 78° ESE 21:46:12 10° NNE
COSMOS 2428 4.1 21:43:30 22° NE 21:43:30 22° NE 21:45:51 10° NE
Cosmos 2360 Rocket 2.2 21:40:05 10° SSW 21:45:42 80° WNW 21:51:23 10° NNE
Cosmos 1733 Rocket 3.0 21:43:21 10° N 21:47:50 87° WSW 21:48:10 76° S
Cosmos 1862 Rocket 4.4 21:44:15 12° SSW 21:48:12 51° W 21:52:33 10° N
USA 186 3.9 21:48:48 19° W 21:48:48 19° W 21:50:47 10° NW
IUS-7 SRM-1 4.3 21:48:44 10° W 21:52:28 65° S 21:55:40 41° ESE
SAR-Lupe-4 4.4 21:52:43 48° W 21:52:43 48° W 21:55:59 10° NNW
Cosmos 1825 3.3 21:51:10 10° NNW 21:54:44 39° W 21:55:15 37° WSW
Helios 1A 3.9 21:56:05 40° SW 21:56:55 45° W 22:01:00 10° NNW
Cosmos 2322 3.9 21:52:48 10° SSW 21:58:30 72° WNW 22:04:12 10° NNE
CCE 1 Rocket 4.2 22:02:51 10° WNW 22:10:50 72° SSW 22:10:50 72° SSW
ATLAS 5 CENTAUR R/B 3.1 22:06:05 10° NNW 22:11:35 43° NE 22:11:35 43° NE
Skynet4D Del rocket 4.2 22:11:04 10° W 22:19:21 87° S 22:20:18 72° ESE
Cosmos 2266 Rocket 4.1 22:17:02 10° N 22:22:35 66° NE 22:22:35 66° NE
H-2A R/B 4.2 22:31:00 15° NNE 22:31:00 15° NNE 22:32:02 10° NNE
Cosmos 968 Rocket 4.5 22:24:30 10° NNW 22:27:53 41° N 22:27:53 41° N
USA 234 3.3 22:41:13 68° N 22:41:13 68° N 22:47:06 10° NW
Cosmos 2219 Rocket 4.4 22:54:47 15° NNE 22:54:47 15° NNE 22:55:45 10° NNE
Lacrosse 4 Rocket 4.5 22:55:40 10° W 22:56:19 11° W 22:56:19 11° W
Atlas Centaur 2 3.3 23:02:05 10° W 23:08:19 61° NW 23:08:19 61° NW
Cosmos 2263 Rocket 4.4 23:15:55 10° WNW 23:18:24 17° W 23:18:24 17° W
Milstar 3 4.4 23:27:01 10° W 23:29:31 23° W 23:29:31 23° W
